Home   Weather   Trenton   Past weeks
Flag for USA

Past Weather in Trenton, New Jersey, USA — Yesterday and Last 2 Weeks

Now
36 °F

Sunny.


Feels Like: 31 °F
Forecast: 45 / 31 °F
Wind: 6 mph from Northeast

Location: Mercer County Airport

Current Time: Feb 23, 2019 at 10:04:15 am

Latest Report: Feb 23, 2019 at 8:53 am


Visibility: 10 mi

Pressure: 30.47 "Hg

Humidity: 62%

Dew Point: 24 °F

Location of TrentonLocation

Past Weather in Trenton — Graph

°F

Trenton Temperature Yesterday

Maximum temperature yesterday: 47 °F (at 12:53 am)
Minimum temperature yesterday: 37 °F (at 10:53 pm)
Average temperature yesterday: 43 °F

High & Low Weather Summary for the Past Weeks

 TemperatureHumidityPressure
High63 °F (Feb 15, 1:53 pm)96% (Feb 21, 4:18 am)30.72 "Hg (Feb 21, 4:18 am)
Low21 °F (Feb 10, 4:53 am)27% (Feb 8, 3:53 pm)29.57 "Hg (Feb 13, 2:53 am)
Average37 °F61%30.15 "Hg
* Reported Feb 8 8:05 am — Feb 23 8:53 am, Trenton. Weather by CustomWeather, © 2019

Note: Actual official high and low records may vary slightly from our data, if they occured in-between our weather recording intervals... More about our weather records

Advertising

Trenton Weather History for the Previous 24 Hours

Scroll right to see more
 ConditionsComfort  
Time TempWeatherWind HumidityBarometerVisibility
8:53 am
Sat, Feb 23
36 °FSunny.6 mph62%30.47 "Hg10 mi
7:53 am34 °FSunny.7 mph67%30.47 "Hg10 mi
6:53 am33 °FSunny.5 mph66%30.47 "Hg10 mi
5:53 am33 °FClear.5 mph66%30.46 "Hg10 mi
4:53 am34 °FClear.5 mph64%30.45 "Hg10 mi
3:53 am34 °FClear.3 mph64%30.43 "Hg10 mi
2:53 am34 °FClear.3 mph64%30.46 "Hg10 mi
1:53 am35 °FClear.5 mph61%30.47 "Hg10 mi
12:53 am35 °FClear.No wind61%30.45 "Hg10 mi
11:53 pm
Fri, Feb 22
37 °FClear.5 mph57%30.45 "Hg10 mi
10:53 pm37 °FClear.5 mph57%30.42 "Hg10 mi
9:53 pm38 °FClear.3 mph55%30.42 "Hg10 mi
8:53 pm39 °FClear.3 mph53%30.42 "Hg10 mi
7:53 pm40 °FClear.6 mph53%30.41 "Hg10 mi
6:53 pm42 °FClear.8 mph49%30.40 "Hg10 mi
5:53 pm44 °FClear.No wind43%30.38 "Hg10 mi
4:53 pm45 °FSunny.5 mph42%30.35 "Hg10 mi
3:53 pm46 °FSunny.8 mph42%30.35 "Hg10 mi
2:53 pm47 °FSunny.7 mph42%30.34 "Hg10 mi
1:53 pm47 °FSunny.5 mph42%30.33 "Hg10 mi
11:53 am45 °FSunny.12 mph45%30.35 "Hg10 mi
10:53 am46 °FSunny.9 mph44%30.38 "Hg10 mi
Weather by CustomWeather, © 2019

See weather overview